Home   Weather   Moga   Past weeks
Flag for India

Past Weather in Moga, Punjab, India — Yesterday and Last 2 Weeks

Now
82 °F

Fog.


Feels Like: 92 °F
Forecast: 97 / 79 °F
Wind: 2 mph from North

Location: Amritsar Airport

Current Time: Aug 24, 2019 at 12:04:37 am

Latest Report: Aug 23, 2019 at 11:30 pm


Visibility: 2 mi

Pressure: 29.62 "Hg

Humidity: 89%

Dew Point: 79 °F

Location of MogaLocation

Past Weather in Moga — Graph

°F

Moga Temperature Yesterday

Maximum temperature yesterday: 95 °F (at 3:00 pm)
Minimum temperature yesterday: 77 °F (at 5:30 am)
Average temperature yesterday: 86 °F

High & Low Weather Summary for the Past Weeks

 TemperatureHumidityPressure
High95 °F (Aug 21, 2:30 pm)100% (Aug 11, 6:30 am)29.77 "Hg (Aug 11, 6:30 am)
Low73 °F (Aug 17, 8:30 pm)52% (Aug 19, 5:30 pm)29.47 "Hg (Aug 8, 11:00 pm)
Average85 °F81%29.60 "Hg
* Reported Aug 8 11:00 pm — Aug 23 10:30 pm, Moga. Weather by CustomWeather, © 2019

Note: Actual official high and low records may vary slightly from our data, if they occured in-between our weather recording intervals... More about our weather records

Advertising

Moga Weather History for the Previous 24 Hours

Scroll right to see more
 ConditionsComfort  
Time TempWeatherWind HumidityBarometerVisibility
10:30 pm
Fri, Aug 23
84 °FFog.2 mph84%29.62 "Hg2 mi
10:00 pm82 °FFog.No wind89%29.62 "Hg2 mi
9:30 pm84 °FFog.2 mph89%29.59 "Hg2 mi
9:00 pm86 °FFog.2 mph84%29.59 "Hg2 mi
8:30 pm84 °FFog.No wind89%29.59 "Hg2 mi
7:30 pm88 °FHaze.No wind79%29.59 "Hg3 mi
7:00 pm90 °FHaze.No wind71%29.59 "Hg3 mi
6:30 pm91 °FHaze.No wind67%29.59 "Hg3 mi
6:00 pm93 °FScattered clouds.No wind63%29.59 "Hg3 mi
5:30 pm91 °FScattered clouds.2 mph67%29.59 "Hg3 mi
5:00 pm91 °FScattered clouds.5 mph63%29.59 "Hg3 mi
4:30 pm93 °FScattered clouds.6 mph59%29.59 "Hg3 mi
4:00 pm95 °FScattered clouds.6 mph56%29.59 "Hg3 mi
3:30 pm95 °FScattered clouds.6 mph56%29.62 "Hg3 mi
3:00 pm95 °FScattered clouds.2 mph56%29.62 "Hg3 mi
2:30 pm93 °FScattered clouds.5 mph59%29.62 "Hg3 mi
2:00 pm93 °FScattered clouds.7 mph59%29.62 "Hg3 mi
1:30 pm91 °FScattered clouds.3 mph63%29.65 "Hg3 mi
1:00 pm91 °FScattered clouds.6 mph63%29.65 "Hg3 mi
12:30 pm91 °FScattered clouds.6 mph63%29.68 "Hg3 mi
12:00 pm91 °FScattered clouds.5 mph67%29.68 "Hg3 mi
11:30 am90 °FHaze.3 mph67%29.68 "Hg3 mi
11:00 am90 °FHaze.3 mph59%29.68 "Hg3 mi
10:00 am88 °FHaze.2 mph62%29.68 "Hg3 mi
9:30 am86 °FHaze.No wind66%29.68 "Hg3 mi
9:00 am84 °FHaze.2 mph66%29.68 "Hg3 mi
8:30 am84 °FHaze.No wind66%29.68 "Hg2 mi
8:00 am82 °FFog.2 mph79%29.68 "Hg2 mi
7:30 am81 °FFog.No wind84%29.68 "Hg2 mi
7:00 am79 °FFog.2 mph89%29.68 "Hg2 mi
6:30 am77 °FFog.2 mph94%29.68 "Hg2 mi
6:00 am77 °FFog.2 mph94%29.65 "Hg2 mi
5:30 am77 °FFog.3 mph94%29.65 "Hg2 mi
5:00 am79 °FFog.3 mph94%29.65 "Hg2 mi
4:30 am79 °FFog.No wind94%29.65 "Hg2 mi
4:00 am79 °FFog.No wind94%29.65 "Hg2 mi
3:30 am79 °FFog.2 mph94%29.62 "Hg2 mi
3:00 am79 °FFog.6 mph94%29.65 "Hg2 mi
2:00 am82 °FThunderstorms. Passing clouds.No wind89%29.65 "Hg2 mi
1:30 am84 °FThunderstorms. Passing clouds.No wind89%29.62 "Hg2 mi
1:00 am84 °FFog.No wind84%29.62 "Hg2 mi
12:30 am84 °FFog.No wind89%29.65 "Hg2 mi
12:00 am86 °FFog.No wind84%29.62 "Hg2 mi
Weather by CustomWeather, © 2019

See weather overview